Location: Bosmont
(49.7318°N, 3.8587°E)
Time: 23:52:23
(UTC+00:00)

USA 215 - Pass Details

Date: 08 February 2023
Orbit: 1102 x 1105 km, 123.0° (Epoch: 27 March)

Event Time Altitude Azimuth Distance (km) Brightness Sun altitude
Rises 18:07:04 0° 133° (SE) 3,910 5.8 -12.6°
Reaches altitude 10° 18:09:34 10° 136° (SE) 2,955 5.2 -13.0°
Maximum altitude 18:16:03 66° 218° (SW) 1,198 3.6 -14.1°
Drops below altitude 10° 18:22:34 10° 301° (WNW) 2,967 6.3 -15.1°
Sets 18:25:06 0° 304° (NW) 3,928 7.0 -15.5°
